Hourly Data Report for June 05, 2021

FISHER BRANCH (AUT)
MANITOBA
Current Station Operator: ECCC - MSC

51°05'00.100" N
97°33'16.200" W
253.00 m
50309J6
71442
WSZ

Download Data

Hourly Data (June 2021)
Hourly Data Report for June 5, 2021
TIME
LST
Temp Definition
°C
Dew Point Definition
°C
Rel Hum Definition
%
Precip. Amount Definition
mm

Wind Dir Definition
10's deg

Wind Spd Definition
km/h
Visibility Definition
km
Stn Press Definition
kPa
Hmdx Definition


Wind Chill Definition


Weather Definition


00:00 13.4 10.8 84 0.0 28 4   97.38     LegendNANA
01:00 11.5 7.4 76 0.0 31 3   97.37     LegendNANA
02:00 12.1 11.0 93 0.0 29 5   97.39     LegendNANA
03:00 10.0 8.8 92 0.0 33 5   97.40     LegendNANA
04:00 9.8 8.7 93 0.0 24 3   97.39     LegendNANA
05:00 8.6 6.9 89 0.0 0 1   97.41     LegendNANA
06:00 14.2 11.8 86 0.0 31 1   97.40     LegendNANA
07:00 18.2 12.6 70 0.0 16 1   97.42     LegendNANA
08:00 22.6 13.4 56 0.0 11 5   97.37 26   LegendNANA
09:00 25.1 10.5 40 0.0 13 9   97.35 27   LegendNANA
10:00 26.0 6.0 28 0.0 11 12   97.26 26   LegendNANA
11:00 28.4 7.4 27 0.0 12 16   97.19 29   LegendNANA
12:00 29.4 6.4 23 0.0 16 21   97.14 29   LegendNANA
13:00 31.0 6.6 22 0.0 13 26   97.03 31   LegendNANA
14:00 31.8 7.3 22 0.0 15 25   96.93 32   LegendNANA
15:00 32.5 9.1 24 0.0 16 25   96.83 33   LegendNANA
16:00 33.0 9.9 24 0.0 15 26   96.73 34   LegendNANA
17:00 34.2 7.4 19 0.0 17 26   96.62 34   LegendNANA
18:00 34.4 7.6 19 0.0 17 24   96.48 35   LegendNANA
19:00 32.6 9.0 23 0.0 16 28   96.42 33   LegendNANA
20:00 29.6 12.1 34 0.0 17 22   96.38 32   LegendNANA
21:00 26.6 15.3 50 0.0 19 16   96.44 31   LegendNANA
22:00 26.0 15.3 52 0.0 18 16   96.45 30   LegendNANA
23:00 24.0 15.6 59 0.0 18 15   96.43 28   LegendNANA

Notes on Data Quality.

Legend

  • E = Estimated
  • M = Missing
  • NA = Not Available*
  • [empty] = Indicates an unobserved value
Date modified: